This demonstration page uses our WeatherBlox Daily Observations layout. Learn more.

Left ArrowRight Arrow

Hourly Observations for June 26, 2022

Temp ( °F °C ) Dew Point ( °F °C ) Humidity (%) Winds ( mph kmh ) Pressure ( in mb ) Visibility ( mi km ) Precip ( " mm )
12:59 am 00:59 Clear 68 20 65 18.3 90 90 S 5 7 30.17 1022 10 16 0.00 0.00
1:59 am 01:59 Clear 66 18.9 64 17.8 93 93 S 3 6 30.17 1022 10 16 0.00 0.00
2:59 am 02:59 Clear 65 18.3 63 17.2 93 93 Calm 30.16 1021 10 16 0.00 0.00
3:59 am 03:59 Clear 64 17.8 63 17.2 96 96 SSW 5 7 30.16 1021 10 16 0.00 0.00
4:59 am 04:59 Mostly Clear 65 18.3 64 17.8 97 97 Calm 30.16 1021 10 16 0.00 0.00
5:52 am 05:52 Cloudy 65 18.3 64 17.8 97 97 Calm 30.17 1022 10 16 0.00 0.00
5:59 am 05:59 Cloudy with Mist and Fog 65 18.3 64 17.8 97 97 SE 3 6 30.17 1022 3 5 0.00 0.00
6:11 am 06:11 Cloudy with Fog 65 18.3 64 17.8 97 97 Calm 30.17 1022 1 1 0.00 0.00
6:31 am 06:31 Cloudy with Mist and Fog 65 18.3 64 17.8 97 97 Calm 30.18 1022 3 5 0.00 0.00
6:47 am 06:47 Cloudy with Mist and Fog 65 18.3 64 17.8 97 97 Calm 30.18 1022 2 3 0.00 0.00
6:59 am 06:59 Cloudy with Fog 67 19.4 67 19.4 100 100 SSE 3 6 30.18 1022 0 0 0.00 0.00
7:59 am 07:59 Mostly Cloudy with Fog 68 20 68 20 100 100 S 5 7 30.19 1023 1 1 0.00 0.00
8:08 am 08:08 Cloudy with Mist and Fog 68 20 68 20 100 100 Calm 30.20 1023 1 2 0.00 0.00
8:16 am 08:16 Cloudy with Mist and Fog 68 20 68 20 100 100 S 3 6 30.20 1023 2 3 0.00 0.00
8:24 am 08:24 Cloudy with Mist and Fog 68 20 68 20 100 100 SSW 3 6 30.20 1023 3 5 0.00 0.00
8:38 am 08:38 Mostly Cloudy with Mist and Fog 68 20 68 20 100 100 SSW 6 9 30.20 1023 5 8 0.00 0.00
8:59 am 08:59 Mostly Cloudy with Mist and Fog 71 21.7 71 21.7 100 100 VRB 5 7 30.19 1022 6 10 0.00 0.00
9:28 am 09:28 Partly Cloudy 71 21.7 71 21.7 100 100 SSW 6 9 30.18 1022 10 16 0.00 0.00
9:59 am 09:59 Partly Cloudy 71 21.7 71 21.7 100 100 SSW 3 6 30.17 1022 10 16 0.00 0.00
10:59 am 10:59 Partly Cloudy 79 26.1 68 20 69 69 SW 6 9 30.16 1021 10 16 0.00 0.00
11:59 am 11:59 Partly Cloudy 79 26.1 67 19.4 67 67 SW 5 7 30.16 1021 10 16 0.00 0.00
12:59 pm 12:59 Partly Cloudy 82 27.8 69 20.6 65 65 ENE 12 19 30.14 1021 10 16 0.00 0.00
1:59 pm 13:59 Partly Cloudy 84 28.9 68 20 59 59 ENE 10 17 30.13 1020 10 16 0.00 0.00
2:59 pm 14:59 Partly Cloudy 84 28.9 62 16.7 48 48 SSE 8 13 30.11 1020 10 16 0.00 0.00
3:59 pm 15:59 Mostly Cloudy 84 28.9 65 18.3 53 53 S 8 13 30.09 1019 10 16 0.00 0.00
4:59 pm 16:59 Mostly Cloudy 84 28.9 64 17.8 51 51 SSE 10 17 30.08 1019 10 16 0.00 0.00
5:59 pm 17:59 Partly Cloudy 85 29.4 66 18.9 53 53 SE 13 20 30.06 1018 10 16 0.00 0.00
6:59 pm 18:59 Mostly Sunny 83 28.3 71 21.7 67 67 S 8 13 30.07 1018 10 16 0.00 0.00
7:59 pm 19:59 Partly Cloudy 80 26.7 73 22.8 79 79 SSE 12 19 30.07 1018 10 16 0.00 0.00
8:59 pm 20:59 Partly Cloudy 78 25.6 74 23.3 87 87 SSE 10 17 30.07 1018 10 16 0.00 0.00
9:59 pm 21:59 Partly Cloudy 78 25.6 74 23.3 87 87 S 9 15 30.08 1019 10 16 0.00 0.00
10:59 pm 22:59 Mostly Cloudy 77 25 72 22.2 85 85 S 14 22 30.09 1019 10 16 0.00 0.00
11:59 pm 23:59 Mostly Clear 76 24.4 73 22.8 91 91 S 9 15 30.09 1019 10 16 0.00 0.00

Powered by AerisWeather